Location: Hyderabad
(17.3833°N, 78.4667°E)
Time: 18:23:02
(UTC+05:30)

Daily predictions for brighter satellites

Satellite Brightness Start Highest point End
(mag) Time Altitude Azimuth Time Altitude Azimuth Time Altitude Azimuth
SJ-6B 3.6 19:01:23 10° SE 19:05:10 36° ENE 19:08:57 10° N
COSMOS 2406 3.6 19:04:27 10° S 19:09:47 40° ESE 19:15:05 10° NE
Cosmos 44 3.0 19:06:27 10° NNW 19:10:47 70° ENE 19:15:15 10° SSE
Helios 1B rocket 4.1 19:11:42 10° ENE 19:13:59 14° E 19:16:16 10° SE
Hubble Space Telescope 1.6 19:12:49 10° SW 19:16:32 32° SSE 19:20:16 10° E
Cosmos 1437 3.9 19:18:15 10° SSE 19:20:53 24° E 19:23:32 10° NE
Meteor 1-18 Rocket 4.4 19:20:11 10° S 19:26:05 88° W 19:32:02 10° N
FENGYUN 3A 3.6 19:20:54 10° SSE 19:26:13 75° ENE 19:31:34 10° N
Cosmos 773 Rocket 4.2 19:22:02 10° SSW 19:27:12 77° WNW 19:32:19 10° N
GPS 2-18 Rocket1 3.7 19:25:27 10° WNW 19:29:03 49° N 19:32:32 11° E
Resurs 01 Rocket 2.5 19:25:29 11° SE 19:29:17 31° ENE 19:33:13 10° NNE
Cosmos 1709 Rocket 4.4 19:26:12 10° NNE 19:31:58 40° E 19:37:39 10° SSE
DASH 2.8 19:29:08 10° WNW 19:32:31 37° SSW 19:34:23 15° SE
Cosmos 405 Rocket 3.7 19:30:05 12° SE 19:32:50 25° E 19:35:55 10° NE
USA 238 DEB 4.4 19:26:23 10° NW 19:33:18 56° WSW 19:40:15 10° S
USA 238 4.4 19:26:29 10° NW 19:33:24 57° WSW 19:40:22 10° S
Cosmos 2112 Rocket 4.4 19:29:44 10° S 19:34:35 39° E 19:39:25 10° NNE
ALOS 2.5 19:31:54 10° S 19:36:33 72° W 19:41:12 10° NNW
GPS 2-05 Rocket1 3.3 19:36:22 10° WNW 19:39:22 45° SW 19:41:12 20° SSE
USA 186 3.1 19:41:30 21° E 19:42:03 22° ENE 19:44:36 10° NNE
Cosmos 372 Rocket 4.4 19:37:25 10° NNW 19:42:29 64° WSW 19:47:31 10° S
CZ-3A R/B 3.1 19:39:34 10° SW 19:42:49 44° SE 19:55:07 10° ENE
Cosmos 1455 Rocket 3.9 19:40:39 10° NNE 19:44:26 29° E 19:46:03 22° ESE
Orbus 7S 4.3 19:42:54 10° W 19:45:17 43° NNW 19:49:10 10° ENE
Spot 2 Rocket 3.8 19:41:29 15° SE 19:45:27 47° ENE 19:50:15 10° N
Cosmos 1500 3.6 19:44:47 10° NNE 19:48:19 39° E 19:49:48 27° SE
USA 81 4.1 19:45:37 10° SSE 19:50:44 55° E 19:55:52 10° NNE
BREEZE-M DEB (TANK) 3.1 19:45:40 10° SSW 19:52:29 33° SE 19:53:21 29° ESE
HJ-1C 4.3 19:51:15 10° S 19:54:31 47° W 19:57:47 10° NNW
Cosmos 1680 Rocket 3.4 19:52:00 10° SSW 19:57:14 90° NNW 20:02:28 10° NNE
Meteor 2-4 Rocket 4.1 19:54:22 19° SSE 19:57:52 39° E 20:03:04 10° NNE
Meteor 1-12 Rocket 4.4 19:52:35 10° N 19:58:28 59° E 20:02:33 20° SSE
GPS 2-12 Rocket1 3.8 19:55:57 10° W 20:00:05 37° SSW 20:01:36 28° SSE
COSMOS 2455 3.3 19:55:33 10° N 20:01:14 43° ENE 20:03:46 29° ESE
Iridium 4 Rocket 3.8 19:58:39 10° N 20:04:04 82° W 20:09:52 10° S
Envisat 3.6 20:06:25 32° ESE 20:07:37 37° ENE 20:12:16 10° N
NOSS 3-2 (C) 4.1 20:01:33 10° NNW 20:09:36 89° WSW 20:15:25 22° SSE
Helios 1A 3.7 20:12:16 35° ENE 20:12:16 35° ENE 20:16:05 10° N
Cosmos 1975 2.7 20:10:10 10° N 20:14:15 89° E 20:15:39 40° S
Meteor 1-29 2.7 20:11:02 10° NNE 20:14:24 82° ESE 20:14:39 73° SSE
Aureole 1 Rocket 3.4 20:12:34 10° SSW 20:16:36 51° WNW 20:19:52 10° N
CZ-2D R/B 3.8 20:15:56 26° SSW 20:17:49 55° W 20:21:34 10° NNW
Okean 1-7 Rocket 4.2 20:19:28 38° ENE 20:19:28 38° ENE 20:22:56 10° NNE
Cosmos 1743 3.7 20:16:08 10° NNE 20:18:48 33° NE 20:18:48 33° NE
Fermi 3.6 20:15:49 10° WSW 20:19:45 66° SSE 20:19:45 66° SSE
CENTAUR R/B 3.8 20:14:09 10° N 20:21:42 38° ENE 20:24:22 31° E
Cosmos 1939 Rocket 3.9 20:22:52 30° NE 20:22:52 30° NE 20:25:24 10° N
Cosmos 2369 Rocket 3.8 20:21:03 10° NW 20:26:00 31° WSW 20:30:57 10° SSW
GPS 2-14 Rocket1 3.0 20:26:36 10° W 20:30:21 57° N 20:30:25 57° N
Intelsat 5-1 Rocket 3.3 20:25:15 10° W 20:30:41 27° SW 20:31:02 27° SSW
Cosmos 1943 Rocket 2.5 20:25:49 10° NNW 20:31:17 62° WSW 20:33:42 33° S
Nadezhda 1 Rocket 3.9 20:28:34 27° S 20:32:13 78° E 20:38:35 10° N
Meteor 1-23 Rocket 4.0 20:32:32 51° SSE 20:33:52 70° E 20:39:24 10° NNE
SL-27 R/B 4.4 20:31:48 10° SW 20:35:03 30° WNW 20:38:18 10° NNW
Spot 1 4.1 20:40:28 76° NE 20:40:28 76° NE 20:44:42 10° N
Cosmos 1025 Rocket 3.9 20:48:17 42° N 20:48:17 42° N 20:51:09 10° N
ERS-1 Rocket 4.2 20:51:27 29° NE 20:51:27 29° NE 20:54:23 10° N
Hubble Space Telescope 2.2 20:53:40 10° W 20:56:19 35° WNW 20:56:19 35° WNW
Cosmos 2082 Rocket 3.9 21:01:27 20° NE 21:01:27 20° NE 21:03:12 10° NNE
Resurs 01 Rocket 4.4 21:03:46 10° WSW 21:05:39 12° W 21:07:33 10° WNW
CZ-3B Rocket 2.7 21:08:21 10° W 21:12:27 82° N 21:13:05 72° ENE
Aurora 2 Rocket 4.5 21:19:09 10° WNW 21:27:19 66° NNE 21:29:10 56° ENE
CENTAUR R/B 4.2 22:04:53 10° NW 22:11:34 36° W 22:11:34 36° W
